Voltar ao catálogo

STARLINK-31785

AtivoComunicaçõesVLEO
NORAD 60131·PAYLOAD·🇺🇸 United States

Lançado Jun 24, 2024 de Vandenberg Space Force Base

Loading…

Próximas Passagens (próximas 24 horas)

TLE

AtualizadoSource: CelesTrak SupGP

Época: Sep 14, 2026, 22:53 UTC

1 60131C 24118U   26257.95395833 -.00000292  00000+0 -94035-5 0  2571
2 60131  53.1571 226.0365 0001573 101.4232 333.2744 15.31670048    10

Acompanhe STARLINK-31785 em tempo real com AllMySat

Download on the App Store